Regional Weather Roundup
Issued by NWS Cleveland, OH

Home | Current Version | Previous Version | Graphics & Text | Print | Product List | Glossary On
Versions: 1 2 3 4 5 6 7 8 9 10 11 12 13 14 15 16 17 18 19 20 21 22 23 24 25 26 27 28 29 30 31 32 33 34 35 36 37 38 39 40 41 42 43 44 45 46 47 48 49 50
000
ASUS41 KCLE 252110
RWRCLE
OHIO REGIONAL WEATHER ROUNDUP
NATIONAL WEATHER SERVICE WILMINGTON, OH
500 PM EDT FRI JUL 25 2014

NOTE: "FAIR" INDICATES FEW OR NO CLOUDS BELOW 12,000 FEET WITH NO
SIGNIFICANT WEATHER AND/OR OBSTRUCTIONS TO VISIBILITY.

OHZ001>008-015>018-024>027-034-035-043-044-252200-
   NORTHWEST OHIO

CITY           SKY/WX    TMP DP  RH WIND       PRES   REMARKS
DEFIANCE       PTSUNNY   75  54  47 SW9       30.00S
FINDLAY        SUNNY     76  53  44 S9        29.99F
TOLEDO EXPRESS MOSUNNY   77  53  43 S9        29.98F
TOLEDO METCALF SUNNY     78  52  40 SW10      29.99F
LIMA           PTSUNNY   76  54  46 SW8       30.02F
$$

OHZ009>014-019>023-028>033-038-089-252200-
   NORTHEAST OHIO

CITY           SKY/WX    TMP DP  RH WIND       PRES   REMARKS
CLE-HOPKINS    MOSUNNY   74  54  49 N7        30.03F
CLE-LAKEFRONT  MOSUNNY   72  52  49 N5        30.00F
CUY CO. ARPT   PTSUNNY   73  55  53 NW9       30.03F
LORAIN-ELYRIA  MOSUNNY   79  51  37 W8G17     30.01F
ASHTABULA      MOSUNNY   72  55  55 CALM      30.02F
AKRON-CANTON   MOSUNNY   77  49  37 W7        30.02F
WOOSTER        MOSUNNY   76  53  44 VRB6      30.03F
MANSFIELD      SUNNY     74  52  46 S6        30.03F
YOUNGSTOWN     MOSUNNY   76  48  37 SW7       30.03F
$$

OHZ042-051>053-060>062-070>072-077>081-252200-
  SOUTHWEST OHIO

CITY           SKY/WX    TMP DP  RH WIND       PRES   REMARKS
CINC-COVINGTON PTSUNNY   77  56  48 SW6       30.02F
CINC-LUNKEN    MOSUNNY   79  56  45 W5        30.01F
HAMILTON       MOSUNNY   79  57  46 W5        30.03F
DAYTON         PTSUNNY   76  53  44 SW8       30.04F
WRIGHT-PAT AFB PTSUNNY   75  54  47 VRB3      30.03F
DAYTON GENERAL MOSUNNY   78  56  46 W10       30.02F
WILMINGTON     MOSUNNY   78  56  46 S7        30.02F
$$

OHZ036-037-039>041-045>050-054>059-063>069-073>076-082>088-252200-
  CENTRAL AND SOUTHEAST OHIO

CITY           SKY/WX    TMP DP  RH WIND       PRES   REMARKS
COLUMBUS       MOSUNNY   79  53  40 SW8       30.01F
OSU AIRPORT    MOSUNNY   78  55  44 SW12      30.02F
BOLTON FIELD   SUNNY     75  61  60 SW7       30.03F
RICKENBACK AFB SUNNY     80  49  33 SW5       30.01F
NEWARK         SUNNY     77  56  48 SW7       30.02F
MARION         SUNNY     76  53  44 S9        30.02F
LANCASTER      SUNNY     77  58  51 SW5       30.03F
ZANESVILLE     MOSUNNY   76  54  46 CALM      30.03F
NEW PHILLY     SUNNY     75  57  53 S3        30.03F
$$


USA.gov is the U.S. government's official web portal to all federal, state and local government web resources and services.